FW2834 Weather Reports


Display with metric or nautical units.
time (UTC)temp
F
wind
direction
speed
MPH
gust
MPH
rain 1hr
in
rain 24hr
in
rain mn
in
humidity
%
barometer
mb
20260504202025 76 186 0.0 3.0 0.00 0.00 0.00 44 1006.3
20260504201524 76 195 0.0 3.0 0.00 0.00 0.00 44 1006.4
20260504201022 75 10 0.0 3.0 0.00 0.00 0.00 46 1006.5
20260504200522 75 256 1.0 3.0 0.00 0.00 0.00 45 1006.5
20260504200034 75 301 0.0 3.0 0.00 0.00 0.00 49 1006.6
20260504195519 74 225 0.0 5.0 0.00 0.00 0.00 47 1006.7
20260504195018 74 204 1.0 5.0 0.00 0.00 0.00 46 1006.8
20260504194520 73 274 0.0 3.0 0.00 0.00 0.00 50 1006.9
20260504194016 73 274 0.0 4.0 0.00 0.00 0.00 49 1007.1
20260504193516 72 306 1.0 4.0 0.00 0.00 0.00 52 1007.3
20260504193014 72 213 0.0 5.0 0.00 0.00 0.00 53 1007.4
20260504192513 71 213 0.0 5.0 0.00 0.00 0.00 51 1007.6
20260504192012 71 305 1.0 4.0 0.00 0.00 0.00 51 1007.4
20260504191527 71 318 1.0 4.0 0.00 0.00 0.00 52 1007.7
20260504191012 70 322 1.0 4.0 0.00 0.00 0.00 52 1007.8
20260504190512 70 306 1.0 5.0 0.00 0.00 0.00 52 1007.8
20260504190012 70 183 0.0 3.0 0.00 0.00 0.00 51 1007.9
20260504185511 70 327 1.0 7.0 0.00 0.00 0.00 51 1008.1
20260504185011 70 284 0.0 7.0 0.00 0.00 0.00 51 1008.1
20260504184514 70 246 0.0 1.0 0.00 0.00 0.00 50 1008.0
20260504184011 71 248 0.0 2.0 0.00 0.00 0.00 51 1008.1
20260504183511 71 250 0.0 3.0 0.00 0.00 0.00 50 1008.0
20260504183024 71 248 0.0 5.0 0.00 0.00 0.00 50 1007.9
20260504182510 71 248 0.0 8.0 0.00 0.00 0.00 51 1007.8
20260504182010 71 173 1.0 5.0 0.00 0.00 0.00 49 1007.7
20260504181513 71 269 1.0 10.0 0.00 0.00 0.00 50 1007.7
20260504181010 71 192 2.0 10.0 0.00 0.00 0.00 47 1007.6
20260504180515 71 159 1.0 5.0 0.00 0.00 0.00 48 1007.4
20260504180010 71 325 1.0 5.0 0.00 0.00 0.00 49 1007.3
20260504175508 71 40 1.0 6.0 0.00 0.00 0.00 49 1007.3
20260504175007 71 295 1.0 4.0 0.00 0.00 0.00 52 1007.3
20260504174506 70 330 1.0 7.0 0.00 0.00 0.00 51 1007.2
20260504174005 70 96 1.0 7.0 0.00 0.00 0.00 52 1007.4
20260504173503 69 277 2.0 5.0 0.00 0.00 0.00 53 1007.5
20260504173004 69 96 1.0 4.0 0.00 0.00 0.00 53 1007.5
20260504172504 69 278 1.0 6.0 0.00 0.00 0.00 52 1007.6
20260504172002 69 244 2.0 8.0 0.00 0.00 0.00 54 1007.3
20260504171701 68 311 1.0 8.0 0.00 0.00 0.00 52 1006.9
20260504171101 68 113 1.0 6.0 0.00 0.00 0.00 54 1006.7
20260504170557 68 96 0.0 6.0 0.00 0.00 0.00 54 1007.4
20260504170105 68 113 1.0 6.0 0.00 0.00 0.00 53 1007.5
20260504151038 63 124 0.0 3.0 0.00 0.00 0.00 59 1008.4
20260504150540 63 124 0.0 3.0 0.00 0.00 0.00 57 1008.3
20260504141029 60 149 1.0 3.0 0.00 0.00 0.00 61 1008.4
20260504140528 59 153 0.0 3.0 0.00 0.00 0.00 61 1008.6
20260504130514 54 142 0.0 2.0 0.00 0.00 0.00 64 1009.0
20260504120104 52 302 0.0 2.0 0.00 0.00 0.00 63 1009.1
20260504110549 50 82 0.0 2.0 0.00 0.00 0.00 62 1008.6
20260504100542 50 99 0.0 1.0 0.00 0.00 0.00 60 1009.1
20260504081530 51 104 0.0 3.0 0.00 0.00 0.00 57 1009.8
20260504081030 51 106 0.0 3.0 0.00 0.00 0.00 56 1010.0
20260504080529 51 107 0.0 1.0 0.00 0.00 0.00 56 1010.0
20260504050513 52 157 0.0 3.0 0.00 0.00 0.00 55 1011.8
20260504050012 51 109 0.0 3.0 0.00 0.00 0.00 56 1011.7
20260504045510 51 109 0.0 4.0 0.00 0.00 0.00 55 1011.8
20260504045012 51 119 0.0 3.0 0.00 0.00 0.00 55 1011.9
20260504044519 51 105 0.0 3.0 0.00 0.00 0.00 55 1012.0
20260504044013 51 119 0.0 4.0 0.00 0.00 0.00 55 1011.9
20260504043510 51 119 0.0 4.0 0.00 0.00 0.00 55 1011.9
20260504043012 51 111 0.0 6.0 0.00 0.00 0.00 55 1011.9
20260504042509 51 121 1.0 9.0 0.00 0.00 0.00 54 1011.9
20260504042009 51 132 0.0 9.0 0.00 0.00 0.00 55 1012.0
20260504041508 51 92 0.0 2.0 0.00 0.00 0.00 55 1012.0
20260504041007 51 123 0.0 3.0 0.00 0.00 0.00 55 1012.1
20260504040507 51 123 0.0 3.0 0.00 0.00 0.00 54 1012.2
20260504040005 52 123 0.0 2.0 0.00 0.00 0.00 53 1012.3
20260504035505 52 123 0.0 3.0 0.00 0.00 0.00 53 1012.3
20260504035004 52 110 0.0 3.0 0.00 0.00 0.00 53 1012.4
20260504034506 52 101 0.0 2.0 0.00 0.00 0.00 52 1012.4
20260504034004 52 101 0.0 1.0 0.00 0.00 0.00 52 1012.5
20260504033504 53 101 0.0 1.0 0.00 0.00 0.00 52 1012.6
20260504033005 53 101 0.0 2.0 0.00 0.00 0.00 52 1012.5
20260504032504 53 101 0.0 2.0 0.00 0.00 0.00 51 1012.5
20260504032005 53 101 0.0 1.0 0.00 0.00 0.00 51 1012.5
20260504031505 54 101 0.0 0.0 0.00 0.00 0.00 51 1012.6
20260504031003 54 101 0.0 1.0 0.00 0.00 0.00 50 1012.6
20260504030504 54 101 0.0 1.0 0.00 0.00 0.00 50 1012.5
20260504030009 54 101 0.0 2.0 0.00 0.00 0.00 49 1012.6
20260504025507 54 101 0.0 2.0 0.00 0.00 0.00 49 1012.7
20260504025003 55 101 0.0 1.0 0.00 0.00 0.00 49 1012.7
20260504024505 55 101 0.0 1.0 0.00 0.00 0.00 49 1012.7
20260504024002 55 101 0.0 0.0 0.00 0.00 0.00 49 1012.8
20260504023506 55 101 0.0 0.0 0.00 0.00 0.00 49 1012.8
20260504023002 56 101 0.0 0.0 0.00 0.00 0.00 49 1012.8
20260504022502 56 101 0.0 0.0 0.00 0.00 0.00 47 1012.8
20260504022001 56 101 0.0 0.0 0.00 0.00 0.00 47 1012.8
20260504021501 56 101 0.0 2.0 0.00 0.00 0.00 47 1012.7
20260504021001 56 101 0.0 2.0 0.00 0.00 0.00 47 1012.7
20260504020503 56 101 0.0 3.0 0.00 0.00 0.00 46 1012.7
20260504020001 56 101 0.0 4.0 0.00 0.00 0.00 45 1012.6
20260504015501 56 101 0.0 0.0 0.00 0.00 0.00 45 1012.6
20260504015001 56 101 0.0 0.0 0.00 0.00 0.00 44 1012.6
20260504014502 56 101 0.0 0.0 0.00 0.00 0.00 44 1012.6
20260504014100 56 101 0.0 1.0 0.00 0.00 0.00 42 1012.6
20260504013602 56 101 0.0 3.0 0.00 0.00 0.00 42 1012.4
20260504013111 56 102 0.0 3.0 0.00 0.00 0.00 43 1012.4
20260504012601 57 98 1.0 3.0 0.00 0.00 0.00 43 1012.4
20260504012102 57 355 0.0 2.0 0.00 0.00 0.00 42 1012.5
20260504011600 57 146 0.0 2.0 0.00 0.00 0.00 42 1012.4
20260504011100 57 148 0.0 1.0 0.00 0.00 0.00 42 1012.4
20260504010559 57 148 0.0 1.0 0.00 0.00 0.00 41 1012.4
20260504010114 57 148 0.0 3.0 0.00 0.00 0.00 41 1012.4
20260504005601 57 148 0.0 3.0 0.00 0.00 0.00 39 1012.4
20260504005058 57 109 0.0 3.0 0.00 0.00 0.00 40 1012.4
20260504004625 57 109 0.0 2.0 0.00 0.00 0.00 40 1012.5
20260504004059 58 111 0.0 3.0 0.00 0.00 0.00 41 1012.5
20260504003601 58 111 0.0 3.0 0.00 0.00 0.00 40 1012.4
20260504003058 58 51 0.0 2.0 0.00 0.00 0.00 40 1012.4
20260504002558 58 51 0.0 2.0 0.00 0.00 0.00 40 1012.4
20260504002058 58 51 0.0 1.0 0.00 0.00 0.00 39 1012.4
20260504001607 58 51 0.0 1.0 0.00 0.00 0.00 38 1012.2
20260504001057 58 51 0.0 1.0 0.00 0.00 0.00 38 1012.1
20260504000558 59 51 0.0 1.0 0.00 0.00 0.00 38 1012.0
20260504000057 59 51 0.0 0.0 0.00 0.00 0.00 38 1011.9
20260503235557 59 51 0.0 2.0 0.00 0.00 0.00 37 1012.1
20260503235057 59 51 0.0 3.0 0.00 0.00 0.00 39 1012.0
20260503234557 59 51 0.0 4.0 0.00 0.00 0.00 36 1012.1
20260503234057 59 163 0.0 2.0 0.00 0.00 0.00 36 1011.9
20260503233556 59 163 0.0 9.0 0.00 0.00 0.00 36 1012.1
20260503233057 60 180 1.0 9.0 0.00 0.00 0.00 36 1012.2
20260503232555 60 139 0.0 4.0 0.00 0.00 0.00 35 1012.2
20260503232053 60 95 0.0 6.0 0.00 0.00 0.00 35 1012.6
20260503231555 60 100 1.0 6.0 0.00 0.00 0.00 35 1012.7
20260503231052 60 123 0.0 3.0 0.00 0.00 0.00 36 1012.8
20260503230551 60 123 0.0 3.0 0.00 0.00 0.00 35 1012.8
20260503230057 60 190 0.0 3.0 0.00 0.00 0.00 35 1012.9
20260503225548 60 176 0.0 3.0 0.00 0.00 0.00 34 1013.2
20260503225048 60 236 0.0 5.0 0.00 0.00 0.00 35 1013.3
20260503224548 61 115 1.0 5.0 0.00 0.00 0.00 37 1013.3
20260503224049 61 101 0.0 4.0 0.00 0.00 0.00 34 1013.3
20260503223548 61 100 1.0 4.0 0.00 0.00 0.00 33 1013.4
20260503223051 61 205 0.0 4.0 0.00 0.00 0.00 33 1013.4
20260503222546 61 227 1.0 4.0 0.00 0.00 0.00 32 1013.5
20260503222046 61 104 1.0 4.0 0.00 0.00 0.00 32 1013.5
20260503221545 61 266 1.0 4.0 0.00 0.00 0.00 33 1013.6
20260503221045 61 221 1.0 7.0 0.00 0.00 0.00 34 1013.5
20260503220545 61 227 1.0 7.0 0.00 0.00 0.00 34 1013.5
20260503220044 61 128 0.0 3.0 0.00 0.00 0.00 34 1013.8
20260503215543 61 128 0.0 3.0 0.00 0.00 0.00 35 1013.7
20260503215041 61 306 0.0 5.0 0.00 0.00 0.00 34 1013.7
20260503214541 61 184 0.0 4.0 0.00 0.00 0.00 33 1013.6
20260503214045 61 350 1.0 4.0 0.00 0.00 0.00 33 1013.6
20260503213540 61 355 0.0 3.0 0.00 0.00 0.00 33 1013.6
20260503213057 61 271 0.0 3.0 0.00 0.00 0.00 31 1013.7
20260503212539 61 292 0.0 2.0 0.00 0.00 0.00 32 1013.8
20260503212038 61 279 0.0 3.0 0.00 0.00 0.00 31 1014.1
20260503211537 61 294 1.0 3.0 0.00 0.00 0.00 34 1014.2
20260503211035 61 257 0.0 2.0 0.00 0.00 0.00 33 1014.2
20260503210035 61 254 0.0 5.0 0.00 0.00 0.00 32 1014.4
20260503205535 62 254 1.0 5.0 0.00 0.00 0.00 31 1014.6
20260503205033 62 342 0.0 4.0 0.00 0.00 0.00 38 1014.7
20260503204546 62 181 0.0 2.0 0.00 0.00 0.00 37 1014.5
20260503204033 62 180 0.0 3.0 0.00 0.00 0.00 33 1014.5
20260503203532 62 181 0.0 8.0 0.00 0.00 0.00 32 1014.4
20260503203033 62 257 1.0 8.0 0.00 0.00 0.00 32 1014.4
20260503202532 62 128 1.0 3.0 0.00 0.00 0.00 32 1014.5